Regional Weather Roundup
Issued by NWS

Home | Current Version | Previous Version | Graphics & Text | Print | Product List | Glossary On
Versions: 1 2 3 4 5 6 7 8 9 10 11 12 13 14 15 16 17 18 19 20 21 22 23 24 25 26 27
000
ASUS45 KSLC 212310
RWRUT

UTAH REGIONAL WEATHER ROUNDUP
NATIONAL WEATHER SERVICE SALT LAKE CITY UT
400 PM MST TUE FEB 21 2017

UTZ001>011-023>025-220000-

NORTHERN UTAH

CITY           SKY/WX    TMP DP  RH WIND       PRES   REMARKS
BRIGHAM CITY     N/A     54  36  50 NW28G41   29.90R
HILL AFB       CLOUDY    58  33  38 SW26G33   29.87F
LOGAN          LGT RAIN  42  35  76 N26G38    29.94R
OGDEN          PTSUNNY   60  31  33 SW18G31   29.86F
SALT LAKE CITY PTSUNNY   63  33  32 S28G38    29.88F
TOOELE VALLEY  PTSUNNY   61  36  39 S24G33    29.89F
WENDOVER       CLOUDY    46  32  57 NW31G39   29.93R
HEBER CITY     CLOUDY    55  27  33 SW18G33   29.94F
WEST JORDAN    PTSUNNY   64  43  46 S32G38    29.91F

$$

UTZ011>015-024>027-220000-

CENTRAL/NORTHEAST UTAH

CITY           SKY/WX    TMP DP  RH WIND       PRES   REMARKS
PROVO AIRPORT  MOSUNNY   60  37  42 SW16G29   29.98F
MOAB/CANYONLAN CLOUDY    61  36  39 S23       30.06F
DELTA          SUNNY     59  30  33 SW38G51   30.01F
PRICE          CLOUDY    48  41  76 S6        30.07F
RICHFIELD      SUNNY     61  23  23 S31G40    30.05F
ROOSEVELT      CLOUDY    55  36  47 SW10      30.03F
VERNAL         CLOUDY    53  36  52 SW8       30.02F

$$

UTZ013>016-019>022-027-220000-

SOUTHERN UTAH

CITY           SKY/WX    TMP DP  RH WIND       PRES   REMARKS
BRYCE CANYON   CLOUDY    42  31  64 SW17G25   30.23F
CEDAR CITY     CLOUDY    54  33  45 S26G37    30.12F
MILFORD        PTSUNNY   57  35  43 S36G44    30.05F
ST GEORGE      MOCLDY    65  43  44 VRB3      30.15F
HANKSVILLE     CLOUDY    63  34  34 SW24G31   30.09F
KANAB          MOSUNNY   55  41  58 SW15      30.26S
BLANDING       SUNNY     56  36  46 SW6       30.29F

$$

REGIONAL REPORTS     COLORADO/ARIZONA

CITY           SKY/WX    TMP DP  RH WIND       PRES   REMARKS
CRAIG, CO      CLOUDY    52  29  41 SW28G35   30.05F
GRAND JUNCTION CLOUDY    58  39  49 NW7       30.11F
RIFLE, CO      CLOUDY    58  33  39 W10       30.09F
MONTROSE, CO   CLOUDY    59  29  31 VRB6G23   30.16F
CORTEZ, CO     SUNNY     59  34  39 S12       30.24F
COLORADO CITY    N/A     59  39  47 W14G20    30.24F
PAGE, AZ       PTSUNNY   63  38  39 VRB5      30.17F
GRAND CANYON   PTSUNNY   54  40  59 W9        30.29F
KINGMAN, AZ    CLOUDY    63  39  41 S14G22    30.23F
FLAGSTAFF, AZ  MOSUNNY   55  37  50 SW15      30.31F

$$

REGIONAL REPORTS    NEVADA/IDAHO/WYOMING

CITY           SKY/WX    TMP DP  RH WIND       PRES   REMARKS
LAS VEGAS, NV  CLOUDY    69  31  24 S13G22    30.10F
ELY, NY        PTSUNNY   51  29  42 S26G41    29.98F
ELKO, NV       CLOUDY    38  32  79 W21G30    30.03F WCI  28
POCATELLO, ID  LGT RAIN  41  34  76 SW23G29   29.94F
BURLEY, ID     LGT RAIN  46  28  49 W23G33    29.94S
FORT BRIDGER,  MOCLDY    46  28  50 SW23G33   29.95F
EVANSTON, WY   LGT RAIN  41  27  57 SW22G38   29.90F
ROCK SPRINGS,  CLOUDY    50  29  44 SW25G36   29.90F
KEMMERER, WY     N/A     41  30  65 SW24G30   29.88F

$$




USA.gov is the U.S. government's official web portal to all federal, state and local government web resources and services.